Overview Statistics Trail Chart Weather Telemetry Raw packets
 

This is the latest recevied weather packets stored in our database for station/object HP3ICC-23. If no packets are shown the sender has not sent any weather packets the latest 10 day(s).

<< 9 10 11 12 13 14 15 >>
Time Temp. Humidity Pressure Rain* Wind** Luminosity Snow
1788478988 15.56° C 88% 1012 hPa 0 mm - - -
1788477788 15.56° C 84% 1012 hPa 0 mm - - -
1788477728 15.56° C 84% 1012 hPa 0 mm - - -
1788476600 15° C 85% 1012 hPa 0 mm - - -
1788476527 15° C 85% 1012 hPa 0 mm - - -
1788475387 15.56° C 83% 1011 hPa 0 mm - - -
1788474187 16.11° C 78% 1011 hPa 0 mm - - -
1788472926 16.11° C 79% 1011 hPa 0 mm - - -
1788471812 16.11° C 78% 1011 hPa 0 mm - - -
1788471726 16.11° C 78% 1011 hPa 0 mm - - -
1788470586 16.67° C 76% 1011 hPa 0 mm - - -
1788470526 16.67° C 76% 1011 hPa 0 mm - - -
1788469385 16.67° C 77% 1011 hPa 0.25 mm - - -
1788469325 16.67° C 77% 1011 hPa 0.25 mm - - -
1788468184 16.67° C 77% 1011 hPa 0.25 mm - - -
1788468124 16.67° C 77% 1011 hPa 0.25 mm - - -
1788466985 17.78° C 76% 1011 hPa 0.25 mm - - -
1788466925 17.78° C 76% 1011 hPa 0.25 mm - - -
1788465784 17.22° C 77% 1011 hPa 0.25 mm - - -
1788465724 17.22° C 77% 1011 hPa 0.25 mm - - -
1788464584 17.78° C 76% 1011 hPa 0.25 mm - - -
1788464524 17.78° C 76% 1011 hPa 0.25 mm - - -
1788463383 17.78° C 75% 1012 hPa 0.25 mm - - -
1788463323 17.78° C 75% 1012 hPa 0.25 mm - - -
1788462183 17.78° C 75% 1012 hPa 0.25 mm - - -

* Rain latest hour (hover to see other rain measurements)
** Current wind speed in m/s (hover to see current wind gust speed)